This is the latest recevied weather packets stored in our database for station/object KB8SSH. If no packets are shown the sender has not sent any weather packets the latest 10 day(s).
| Time | Temp. | Humidity | Pressure | Rain* | Wind** | Luminosity | Snow |
|---|---|---|---|---|---|---|---|
| 1777852177 | 11.11° C | 69% | 1047.7 hPa | 0 mm | - | 3 W/m² | - |
| 1777851875 | 11.11° C | 69% | 1048.1 hPa | 0 mm | - | 13 W/m² | - |
| 1777851573 | 11.67° C | 66% | 1048.1 hPa | 0 mm | - | 15 W/m² | - |
| 1777851269 | 11.67° C | 64% | 1048.1 hPa | 0 mm | - | 15 W/m² | - |
| 1777850966 | 12.22° C | 60% | 1047.7 hPa | 0 mm | - | 19 W/m² | - |
| 1777850662 | 12.78° C | 58% | 1048.1 hPa | 0 mm | - | 29 W/m² | - |
| 1777850360 | 12.78° C | 57% | 1048.1 hPa | 0 mm | - | 23 W/m² | - |
| 1777850057 | 12.78° C | 55% | 1048.1 hPa | 0 mm | - | 29 W/m² | - |
| 1777849754 | 12.78° C | 54% | 1048.1 hPa | 0 mm | - | 27 W/m² | - |
| 1777849450 | 13.33° C | 53% | 1047.7 hPa | 0 mm | - | 31 W/m² | - |
| 1777849148 | 13.89° C | 51% | 1047.7 hPa | 0 mm | - | 39 W/m² | - |
| 1777848844 | 13.89° C | 48% | 1047.7 hPa | 0 mm | - | 42 W/m² | - |
| 1777848540 | 14.44° C | 45% | 1047.4 hPa | 0 mm | - | 47 W/m² | - |
| 1777848237 | 15° C | 43% | 1047.7 hPa | 0 mm | - | 46 W/m² | - |
| 1777847935 | 15° C | 41% | 1047.4 hPa | 0 mm | - | 52 W/m² | - |
| 1777847633 | 15° C | 42% | 1047.4 hPa | 0 mm | - | 57 W/m² | - |
| 1777847328 | 15.56° C | 41% | 1047.4 hPa | 0 mm | - | 70 W/m² | - |
| 1777847027 | 15.56° C | 41% | 1047.4 hPa | 0 mm | - | 82 W/m² | - |
| 1777846724 | 15.56° C | 41% | 1047.4 hPa | 0 mm | - | 91 W/m² | - |
| 1777846423 | 15.56° C | 40% | 1047.4 hPa | 0 mm | - | 105 W/m² | - |
| 1777846118 | 15.56° C | 41% | 1047.4 hPa | 0 mm | - | 109 W/m² | - |
| 1777845816 | 15.56° C | 40% | 1047.4 hPa | 0 mm | - | 108 W/m² | - |
| 1777845513 | 15.56° C | 40% | 1047.4 hPa | 0 mm | - | 117 W/m² | - |
| 1777845210 | 15.56° C | 39% | 1047.4 hPa | 0 mm | - | 133 W/m² | - |
| 1777844907 | 15.56° C | 40% | 1047.4 hPa | 0 mm | - | 151 W/m² | - |
* Rain latest hour (hover to see other rain measurements)
** Current wind speed in m/s (hover to see current wind gust speed)